| time (UTC) | temp F | wind direction | speed knots | gust knots | rain 1hr in | rain 24hr in | rain mn in | humidity % | barometer mb |
| 20260504214903 | 58 | 27 | 3.5 | 12.2 | 0.00 | 0.00 | 0.00 | 38 | 1010.4 |
| 20260504214403 | 58 | 11 | 5.2 | 12.2 | 0.00 | 0.00 | 0.00 | 38 | 1010.3 |
| 20260504213904 | 58 | 8 | 7.8 | 12.2 | 0.00 | 0.00 | 0.00 | 38 | 1010.3 |
| 20260504213407 | 58 | 14 | 6.1 | 13.9 | 0.00 | 0.00 | 0.00 | 38 | 1010.3 |
| 20260504212904 | 58 | 330 | 4.3 | 13.9 | 0.00 | 0.00 | 0.00 | 39 | 1010.3 |
| 20260504212404 | 58 | 356 | 10.4 | 13.9 | 0.00 | 0.00 | 0.00 | 39 | 1010.6 |
| 20260504211903 | 58 | 9 | 9.6 | 13.0 | 0.00 | 0.00 | 0.00 | 39 | 1010.6 |
| 20260504211403 | 58 | 33 | 1.7 | 13.9 | 0.00 | 0.00 | 0.00 | 38 | 1010.6 |
| 20260504210904 | 59 | 31 | 5.2 | 13.9 | 0.00 | 0.00 | 0.00 | 38 | 1010.7 |
| 20260504210404 | 59 | 33 | 3.5 | 13.0 | 0.00 | 0.00 | 0.00 | 38 | 1010.6 |
| 20260504205904 | 58 | 16 | 4.3 | 13.9 | 0.00 | 0.00 | 0.00 | 38 | 1010.6 |
| 20260504205403 | 58 | 58 | 3.5 | 20.0 | 0.00 | 0.00 | 0.00 | 39 | 1010.7 |
| 20260504204903 | 58 | 351 | 8.7 | 20.0 | 0.00 | 0.00 | 0.00 | 39 | 1010.6 |
| 20260504204403 | 58 | 9 | 10.4 | 20.0 | 0.00 | 0.00 | 0.00 | 39 | 1010.6 |
| 20260504203904 | 58 | 4 | 13.9 | 20.0 | 0.00 | 0.00 | 0.00 | 39 | 1010.7 |
| 20260504203404 | 58 | 41 | 10.4 | 19.1 | 0.00 | 0.00 | 0.00 | 38 | 1010.6 |
| 20260504202903 | 59 | 19 | 12.2 | 18.2 | 0.00 | 0.00 | 0.00 | 38 | 1010.6 |
| 20260504202403 | 59 | 40 | 7.8 | 22.6 | 0.00 | 0.00 | 0.00 | 36 | 1010.6 |
| 20260504201903 | 58 | 28 | 8.7 | 22.6 | 0.00 | 0.00 | 0.00 | 38 | 1010.7 |
| 20260504200904 | 59 | 31 | 5.2 | 18.2 | 0.00 | 0.00 | 0.00 | 36 | 1010.5 |
| 20260504200404 | 59 | 19 | 10.4 | 18.2 | 0.00 | 0.00 | 0.00 | 37 | 1010.6 |
| 20260504195903 | 59 | 42 | 10.4 | 20.9 | 0.00 | 0.00 | 0.00 | 38 | 1010.6 |
| 20260504195403 | 58 | 35 | 7.0 | 21.7 | 0.00 | 0.00 | 0.00 | 38 | 1010.6 |
| 20260504194403 | 59 | 30 | 12.2 | 21.7 | 0.00 | 0.00 | 0.00 | 38 | 1010.5 |
| 20260504193903 | 59 | 8 | 17.4 | 21.7 | 0.00 | 0.00 | 0.00 | 38 | 1010.5 |
| 20260504193403 | 60 | 29 | 12.2 | 22.6 | 0.00 | 0.00 | 0.00 | 37 | 1010.4 |
| 20260504192904 | 59 | 5 | 11.3 | 30.4 | 0.00 | 0.00 | 0.00 | 37 | 1010.4 |
| 20260504191904 | 59 | 19 | 12.2 | 31.3 | 0.00 | 0.00 | 0.00 | 37 | 1010.3 |
| 20260504191404 | 59 | 27 | 15.6 | 32.2 | 0.00 | 0.00 | 0.00 | 38 | 1010.3 |
| 20260504190903 | 59 | 14 | 19.1 | 32.2 | 0.00 | 0.00 | 0.00 | 37 | 1010.3 |
| 20260504190403 | 60 | 30 | 14.8 | 32.2 | 0.00 | 0.00 | 0.00 | 34 | 1010.1 |
| 20260504185903 | 60 | 3 | 22.6 | 28.7 | 0.00 | 0.00 | 0.00 | 35 | 1010.0 |
| 20260504185404 | 59 | 1 | 20.0 | 31.3 | 0.00 | 0.00 | 0.00 | 36 | 1010.1 |
| 20260504184904 | 60 | 13 | 21.7 | 31.3 | 0.00 | 0.00 | 0.00 | 37 | 1010.1 |
| 20260504184404 | 60 | 358 | 15.6 | 31.3 | 0.00 | 0.00 | 0.00 | 35 | 1010.1 |
| 20260504183903 | 59 | 23 | 18.2 | 32.2 | 0.00 | 0.00 | 0.00 | 36 | 1010.1 |
| 20260504182903 | 60 | 1 | 19.1 | 33.0 | 0.00 | 0.00 | 0.00 | 34 | 1010.2 |
| 20260504182403 | 60 | 6 | 26.1 | 33.9 | 0.00 | 0.00 | 0.00 | 34 | 1010.0 |
| 20260504181903 | 61 | 5 | 24.3 | 33.9 | 0.00 | 0.00 | 0.00 | 34 | 1010.2 |
| 20260504181404 | 59 | 10 | 26.9 | 37.4 | 0.00 | 0.00 | 0.00 | 36 | 1010.1 |
| 20260504180903 | 60 | 352 | 27.8 | 37.4 | 0.00 | 0.00 | 0.00 | 36 | 1010.2 |
| 20260504180403 | 60 | 357 | 30.4 | 37.4 | 0.00 | 0.00 | 0.00 | 36 | 1009.9 |
| 20260504175904 | 62 | 12 | 25.2 | 38.2 | 0.00 | 0.00 | 0.00 | 33 | 1009.9 |
| 20260504175404 | 61 | 10 | 20.9 | 38.2 | 0.00 | 0.00 | 0.00 | 31 | 1009.9 |
| 20260504174903 | 60 | 11 | 28.7 | 38.2 | 0.00 | 0.00 | 0.00 | 32 | 1009.9 |
| 20260504174403 | 60 | 17 | 26.1 | 38.2 | 0.00 | 0.00 | 0.00 | 31 | 1010.0 |
| 20260504173903 | 60 | 14 | 22.6 | 37.4 | 0.00 | 0.00 | 0.00 | 31 | 1010.0 |
| 20260504172904 | 61 | 9 | 25.2 | 33.9 | 0.00 | 0.00 | 0.00 | 30 | 1009.9 |
| 20260504171904 | 64 | 356 | 15.6 | 25.2 | 0.00 | 0.00 | 0.00 | 25 | 1010.0 |
| 20260504171403 | 64 | 337 | 2.6 | 12.2 | 0.00 | 0.00 | 0.00 | 23 | 1009.6 |
| 20260504170904 | 65 | 1 | 5.2 | 15.6 | 0.00 | 0.00 | 0.00 | 22 | 1009.7 |
| 20260504170403 | 63 | 292 | 7.0 | 15.6 | 0.00 | 0.00 | 0.00 | 22 | 1009.6 |
| 20260504160403 | 62 | 322 | 4.3 | 11.3 | 0.00 | 0.00 | 0.00 | 23 | 1009.6 |
| 20260504150903 | 61 | 279 | 10.4 | 17.4 | 0.00 | 0.00 | 0.00 | 24 | 1009.7 |
| 20260504150404 | 62 | 323 | 11.3 | 15.6 | 0.00 | 0.00 | 0.00 | 24 | 1009.6 |
| 20260504140404 | 57 | 305 | 11.3 | 13.9 | 0.00 | 0.00 | 0.00 | 28 | 1009.7 |
| 20260504130403 | 50 | 259 | 7.0 | 11.3 | 0.00 | 0.00 | 0.00 | 34 | 1009.5 |
| 20260504110404 | 41 | 242 | 10.4 | 11.3 | 0.00 | 0.00 | 0.00 | 57 | 1009.2 |
| 20260504100403 | 40 | 246 | 6.1 | 7.8 | 0.00 | 0.00 | 0.00 | 62 | 1009.5 |
| 20260504081403 | 42 | 274 | 7.8 | 10.4 | 0.00 | 0.00 | 0.00 | 57 | 1010.7 |
| 20260504080903 | 41 | 267 | 7.0 | 8.7 | 0.00 | 0.00 | 0.00 | 59 | 1010.8 |
| 20260504045904 | 48 | 15 | 0.0 | 0.0 | 0.00 | 0.00 | 0.00 | 48 | 1012.3 |
| 20260504045403 | 48 | 15 | 0.0 | 1.7 | 0.00 | 0.00 | 0.00 | 47 | 1012.1 |
| 20260504044904 | 48 | 15 | 0.0 | 1.7 | 0.00 | 0.00 | 0.00 | 47 | 1012.3 |
| 20260504043903 | 48 | 17 | 1.7 | 6.1 | 0.00 | 0.00 | 0.00 | 46 | 1012.3 |
| 20260504043404 | 49 | 16 | 2.6 | 7.0 | 0.00 | 0.00 | 0.00 | 45 | 1012.4 |
| 20260504042904 | 49 | 11 | 5.2 | 7.0 | 0.00 | 0.00 | 0.00 | 46 | 1012.4 |
| 20260504042403 | 48 | 13 | 5.2 | 7.0 | 0.00 | 0.00 | 0.00 | 46 | 1012.4 |
| 20260504041904 | 49 | 20 | 4.3 | 7.0 | 0.00 | 0.00 | 0.00 | 45 | 1012.3 |
| 20260504041404 | 49 | 17 | 5.2 | 7.8 | 0.00 | 0.00 | 0.00 | 45 | 1012.4 |
| 20260504040903 | 50 | 21 | 4.3 | 7.8 | 0.00 | 0.00 | 0.00 | 44 | 1012.5 |
| 20260504040404 | 50 | 16 | 6.1 | 7.8 | 0.00 | 0.00 | 0.00 | 44 | 1012.5 |
| 20260504035904 | 50 | 20 | 4.3 | 7.0 | 0.00 | 0.00 | 0.00 | 44 | 1012.6 |
| 20260504034903 | 50 | 23 | 2.6 | 6.1 | 0.00 | 0.00 | 0.00 | 43 | 1012.3 |
| 20260504034404 | 51 | 34 | 1.7 | 4.3 | 0.00 | 0.00 | 0.00 | 43 | 1012.6 |
| 20260504033403 | 50 | 34 | 1.7 | 4.3 | 0.00 | 0.00 | 0.00 | 43 | 1012.5 |
| 20260504032904 | 51 | 44 | 2.6 | 6.1 | 0.00 | 0.00 | 0.00 | 43 | 1012.4 |
| 20260504032403 | 50 | 44 | 4.3 | 6.1 | 0.00 | 0.00 | 0.00 | 43 | 1012.4 |
| 20260504031404 | 51 | 53 | 5.2 | 7.0 | 0.00 | 0.00 | 0.00 | 42 | 1012.3 |
| 20260504030903 | 51 | 54 | 5.2 | 7.0 | 0.00 | 0.00 | 0.00 | 42 | 1012.3 |
| 20260504030404 | 51 | 42 | 4.3 | 8.7 | 0.00 | 0.00 | 0.00 | 42 | 1012.2 |
| 20260504025903 | 51 | 34 | 2.6 | 8.7 | 0.00 | 0.00 | 0.00 | 42 | 1012.2 |
| 20260504025403 | 52 | 46 | 6.1 | 10.4 | 0.00 | 0.00 | 0.00 | 41 | 1012.2 |
| 20260504024904 | 52 | 56 | 7.0 | 11.3 | 0.00 | 0.00 | 0.00 | 41 | 1012.3 |
| 20260504023904 | 53 | 48 | 7.8 | 12.2 | 0.00 | 0.00 | 0.00 | 39 | 1012.1 |
| 20260504023403 | 54 | 45 | 8.7 | 13.0 | 0.00 | 0.00 | 0.00 | 38 | 1012.3 |
| 20260504022903 | 55 | 47 | 8.7 | 13.9 | 0.00 | 0.00 | 0.00 | 37 | 1012.3 |
| 20260504022404 | 55 | 28 | 8.7 | 13.9 | 0.00 | 0.00 | 0.00 | 36 | 1012.4 |
| 20260504021903 | 56 | 40 | 9.6 | 13.9 | 0.00 | 0.00 | 0.00 | 35 | 1012.2 |
| 20260504020903 | 56 | 33 | 7.8 | 13.9 | 0.00 | 0.00 | 0.00 | 34 | 1012.2 |
| 20260504020403 | 57 | 32 | 8.7 | 17.4 | 0.00 | 0.00 | 0.00 | 34 | 1012.2 |
| 20260504015903 | 57 | 48 | 9.6 | 17.4 | 0.00 | 0.00 | 0.00 | 33 | 1012.0 |
| 20260504015404 | 58 | 23 | 8.7 | 17.4 | 0.00 | 0.00 | 0.00 | 33 | 1012.1 |
| 20260504014903 | 58 | 52 | 13.9 | 19.1 | 0.00 | 0.00 | 0.00 | 32 | 1012.1 |
| 20260504014404 | 58 | 49 | 12.2 | 20.0 | 0.00 | 0.00 | 0.00 | 32 | 1011.9 |
| 20260504013903 | 58 | 42 | 12.2 | 27.8 | 0.00 | 0.00 | 0.00 | 32 | 1012.0 |
| 20260504013404 | 59 | 31 | 12.2 | 28.7 | 0.00 | 0.00 | 0.00 | 32 | 1012.2 |
| 20260504012904 | 60 | 16 | 18.2 | 31.3 | 0.00 | 0.00 | 0.00 | 31 | 1012.1 |
| 20260504012403 | 61 | 15 | 24.3 | 31.3 | 0.00 | 0.00 | 0.00 | 28 | 1012.0 |
| 20260504011904 | 63 | 343 | 14.8 | 20.9 | 0.00 | 0.00 | 0.00 | 24 | 1012.0 |
| 20260504011403 | 63 | 7 | 8.7 | 18.2 | 0.00 | 0.00 | 0.00 | 22 | 1011.9 |
| 20260504010403 | 64 | 5 | 10.4 | 20.0 | 0.00 | 0.00 | 0.00 | 22 | 1011.8 |
| 20260504005903 | 63 | 20 | 8.7 | 20.0 | 0.00 | 0.00 | 0.00 | 22 | 1011.7 |
| 20260504005404 | 63 | 36 | 7.8 | 18.2 | 0.00 | 0.00 | 0.00 | 23 | 1011.8 |
| 20260504004903 | 63 | 28 | 8.7 | 20.9 | 0.00 | 0.00 | 0.00 | 23 | 1012.0 |
| 20260504004404 | 63 | 17 | 11.3 | 20.9 | 0.00 | 0.00 | 0.00 | 23 | 1012.1 |
| 20260504003903 | 64 | 32 | 12.2 | 22.6 | 0.00 | 0.00 | 0.00 | 23 | 1011.9 |
| 20260504003404 | 64 | 13 | 12.2 | 22.6 | 0.00 | 0.00 | 0.00 | 23 | 1012.0 |
| 20260504002903 | 64 | 17 | 14.8 | 20.9 | 0.00 | 0.00 | 0.00 | 23 | 1011.9 |
| 20260504002404 | 64 | 15 | 14.8 | 21.7 | 0.00 | 0.00 | 0.00 | 22 | 1011.8 |
| 20260504001904 | 64 | 10 | 13.9 | 26.9 | 0.00 | 0.00 | 0.00 | 22 | 1011.9 |
| 20260504001403 | 65 | 351 | 13.0 | 26.9 | 0.00 | 0.00 | 0.00 | 21 | 1011.9 |
| 20260504000904 | 67 | 319 | 20.0 | 25.2 | 0.00 | 0.00 | 0.00 | 15 | 1011.8 |
| 20260504000403 | 66 | 296 | 13.9 | 22.6 | 0.00 | 0.00 | 0.00 | 15 | 1011.7 |
| 20260503235904 | 67 | 307 | 14.8 | 26.9 | 0.00 | 0.00 | 0.00 | 15 | 1011.8 |
| 20260503235403 | 67 | 292 | 15.6 | 26.9 | 0.00 | 0.00 | 0.00 | 15 | 1011.8 |
| 20260503234904 | 67 | 325 | 17.4 | 22.6 | 0.00 | 0.00 | 0.00 | 15 | 1012.0 |
| 20260503234403 | 67 | 327 | 18.2 | 21.7 | 0.00 | 0.00 | 0.00 | 15 | 1011.7 |
| 20260503233404 | 67 | 314 | 11.3 | 18.2 | 0.00 | 0.00 | 0.00 | 14 | 1011.8 |
| 20260503232404 | 67 | 276 | 10.4 | 19.1 | 0.00 | 0.00 | 0.00 | 14 | 1012.1 |
| 20260503231903 | 67 | 304 | 11.3 | 18.2 | 0.00 | 0.00 | 0.00 | 15 | 1011.9 |
| 20260503231404 | 67 | 274 | 10.4 | 17.4 | 0.00 | 0.00 | 0.00 | 14 | 1012.1 |
| 20260503230903 | 67 | 236 | 7.8 | 17.4 | 0.00 | 0.00 | 0.00 | 14 | 1012.0 |
| 20260503230404 | 67 | 314 | 11.3 | 18.2 | 0.00 | 0.00 | 0.00 | 15 | 1012.1 |
| 20260503225903 | 66 | 311 | 8.7 | 18.2 | 0.00 | 0.00 | 0.00 | 14 | 1012.1 |
| 20260503225404 | 67 | 275 | 10.4 | 17.4 | 0.00 | 0.00 | 0.00 | 14 | 1012.1 |
| 20260503224904 | 67 | 261 | 11.3 | 17.4 | 0.00 | 0.00 | 0.00 | 14 | 1012.2 |
| 20260503224404 | 66 | 358 | 7.8 | 18.2 | 0.00 | 0.00 | 0.00 | 20 | 1012.2 |
| 20260503223904 | 66 | 295 | 8.7 | 18.2 | 0.00 | 0.00 | 0.00 | 15 | 1012.0 |
| 20260503223403 | 67 | 289 | 11.3 | 18.2 | 0.00 | 0.00 | 0.00 | 15 | 1012.1 |
| 20260503222904 | 67 | 323 | 9.6 | 18.2 | 0.00 | 0.00 | 0.00 | 15 | 1012.1 |
| 20260503222403 | 67 | 284 | 8.7 | 17.4 | 0.00 | 0.00 | 0.00 | 16 | 1012.0 |
| 20260503221904 | 67 | 276 | 7.8 | 19.1 | 0.00 | 0.00 | 0.00 | 16 | 1012.3 |
| 20260503221403 | 67 | 327 | 12.2 | 19.1 | 0.00 | 0.00 | 0.00 | 16 | 1012.4 |
| 20260503220903 | 66 | 309 | 7.8 | 10.4 | 0.00 | 0.00 | 0.00 | 17 | 1012.3 |
| 20260503220403 | 65 | 275 | 5.2 | 12.2 | 0.00 | 0.00 | 0.00 | 19 | 1012.3 |
| 20260503215903 | 66 | 296 | 5.2 | 13.9 | 0.00 | 0.00 | 0.00 | 18 | 1012.4 |
| 20260503215404 | 66 | 261 | 7.0 | 17.4 | 0.00 | 0.00 | 0.00 | 18 | 1012.5 |